User: anonymous   Login
Location: Unspecified
(0.0000°N, 0.0000°E)
Time: 14:03:02
(UTC+00:00)
Language:

SBIRS GEO 1 (USA 230) - Orbit

View from above orbital plane
View from above orbital plane
View from above satellite
View from above satellite

Ground track
Ground track

The orbit data is extracted from the following two-line orbital elements,

1 37481U 11019A   16159.91733356 0.00000000  00000-0  00000-0 0    07
2 37481   4.1667 320.9901 0004229 326.7864  33.1895  1.00270000    05
Epoch (UTC): 07 June 2016 22:00:57
Eccentricity: 0.0004229
inclination: 4.1667°
perigee height: 35769 km
apogee height: 35804 km
right ascension of ascending node: 320.9901°
argument of perigee: 326.7864°
revolutions per day: 1.00270000
mean anomaly at epoch: 33.1895°
orbit number at epoch: 0

The dashed part of the orbit path shows where the satellite is in the earth's shadow,  

DLR